Date String (YYYY-MM-DD hh:mm:ss) UTC,Instrument flags,Ambient pressure (hPa),Sample flow (lpm),Bypass flow (lpm),Sample temperature (°C),Ambient temperature (°C),ASC tube jacket temperature (°C),LED temperature (°C),Box temperature (°C),Sample RH (%),Span deviation,Mass concentration (μg/m³),Mass concentration (μg/m³),Mass concentration (μg/m³)
DateTimeUTC,F1_M11,P_M11,Q1_M11,Q2_M11,T1_M11,T2_M11,T3_M11,T4_M11,T5_M11,U1_M11,ZSPAN_M11,X0_M11,X2_M11,X1_M11
2023-05-20 10:00:00,,0837.2,5.00,0.00,28.4,26.8,00.0,36.7,30.0,26.4,0002.7,0101.34,0074.96,0071.20
2023-05-20 10:01:00,,0837.2,5.00,0.00,28.4,26.8,00.0,36.7,30.0,26.7,0002.8,0100.99,0074.44,0070.65
2023-05-20 10:02:00,,0837.2,5.01,0.00,28.4,26.7,00.0,36.7,30.0,27.1,0002.7,0100.66,0074.29,0070.51
2023-05-20 10:03:00,,0837.2,5.00,0.00,28.4,26.7,00.0,36.7,30.0,27.2,0002.7,0100.51,0074.44,0070.66
2023-05-20 10:04:00,,0837.2,5.00,0.00,28.4,26.7,00.0,36.7,30.0,27.3,0002.7,0100.45,0074.43,0070.67
2023-05-20 10:05:00,,0837.2,5.00,0.00,28.4,26.7,00.0,36.7,30.0,27.1,0002.7,0100.20,0074.57,0070.82
2023-05-20 10:06:00,,0837.4,5.00,0.00,28.4,26.7,00.0,36.7,30.0,26.8,0002.7,0100.37,0074.62,0070.85
2023-05-20 10:07:00,,0837.2,5.00,0.00,28.4,26.7,00.0,36.7,30.0,26.6,0002.6,0100.64,0074.71,0070.91
2023-05-20 10:08:00,,0837.2,5.01,0.00,28.4,26.7,00.0,36.7,30.0,26.6,0002.7,0101.08,0075.09,0071.21
2023-05-20 10:09:00,,0837.2,5.00,0.00,28.4,26.7,00.0,36.7,30.0,26.6,0002.7,0101.65,0075.51,0071.68
2023-05-20 10:10:00,,0837.3,5.00,0.00,28.4,26.7,00.0,36.7,29.9,26.5,0002.7,0102.45,0075.82,0071.95
2023-05-20 10:11:00,,0837.2,4.99,0.00,28.4,26.7,00.0,36.7,30.0,26.3,0002.8,0102.85,0076.08,0072.19
2023-05-20 10:12:00,,0837.2,4.98,0.00,28.4,26.7,00.0,36.7,30.0,26.1,0002.8,0102.35,0075.99,0072.08
2023-05-20 10:13:00,,0837.2,5.00,0.00,28.4,26.7,00.0,36.7,30.0,25.9,0002.9,0101.69,0075.73,0071.82
2023-05-20 10:14:00,,0837.2,5.00,0.00,28.4,26.7,00.0,36.7,29.9,25.7,0002.9,0100.82,0075.26,0071.43
2023-05-20 10:15:00,,0837.2,5.00,0.00,28.4,26.7,00.0,36.7,29.9,25.7,0002.9,0100.23,0074.91,0071.07
2023-05-20 10:16:00,,0837.2,5.00,0.00,28.4,26.7,00.0,36.7,29.9,25.7,0002.9,0100.06,0074.89,0071.02
2023-05-20 10:17:00,,0837.2,5.00,0.00,28.3,26.7,00.0,36.7,29.9,25.7,0002.9,0099.88,0074.76,0070.95
2023-05-20 10:18:00,,0837.2,5.00,0.00,28.4,26.7,00.0,36.7,29.9,25.6,0003.0,0099.85,0074.78,0070.92
2023-05-20 10:19:00,,0837.2,5.00,0.00,28.3,26.7,00.0,36.7,30.0,25.9,0003.0,0100.95,0075.51,0071.61
2023-05-20 10:20:00,,0837.2,5.00,0.00,28.3,26.7,00.0,36.7,29.9,25.8,0003.0,0102.17,0076.36,0072.34
2023-05-20 10:21:00,,0837.2,5.00,0.00,28.3,26.7,00.0,36.7,29.9,25.9,0003.0,0102.96,0077.02,0072.88
2023-05-20 10:22:00,,0837.2,5.00,0.00,28.3,26.7,00.0,36.7,29.9,25.8,0002.9,0104.54,0078.06,0073.84
2023-05-20 10:23:00,,0837.2,5.00,0.00,28.3,26.7,00.0,36.7,29.9,25.4,0003.0,0104.85,0078.29,0074.12
2023-05-20 10:24:00,,0837.2,5.00,0.00,28.3,26.7,00.0,36.7,29.9,25.5,0003.0,0105.11,0078.67,0074.56
2023-05-20 10:25:00,,0837.2,5.00,0.00,28.3,26.7,00.0,36.7,29.9,25.4,0002.9,0105.58,0079.00,0074.86
2023-05-20 10:26:00,,0837.2,5.00,0.00,28.3,26.7,00.0,36.7,29.9,25.3,0002.9,0105.31,0078.75,0074.61
2023-05-20 10:27:00,,0837.2,5.00,0.00,28.3,26.7,00.0,36.7,29.9,25.5,0002.9,0105.74,0079.04,0074.84
2023-05-20 10:28:00,,0837.1,5.00,0.00,28.3,26.7,00.0,36.7,29.9,25.6,0002.9,0106.93,0079.72,0075.40
2023-05-20 10:29:00,,0837.1,5.00,0.00,28.3,26.7,00.0,36.7,29.9,25.7,0002.8,0108.22,0080.52,0076.17
2023-05-20 10:30:00,,0837.2,5.01,0.00,28.3,26.7,00.0,36.7,29.9,25.7,0002.8,0108.41,0080.55,0076.28
2023-05-20 10:31:00,,0837.2,5.00,0.00,28.3,26.7,00.0,36.7,29.9,25.8,0002.7,0108.42,0080.19,0075.91
2023-05-20 10:32:00,,0837.2,5.00,0.00,28.3,26.7,00.0,36.7,29.9,25.8,0002.7,0108.61,0080.30,0076.10
2023-05-20 10:33:00,,0837.2,5.00,0.00,28.3,26.7,00.0,36.7,29.9,25.8,0002.8,0107.73,0079.74,0075.63
2023-05-20 10:34:00,,0837.2,4.99,0.00,28.3,26.7,00.0,36.7,29.9,25.6,0002.8,0107.71,0079.68,0075.56
2023-05-20 10:35:00,,0837.2,5.00,0.00,28.3,26.7,00.0,36.7,29.9,26.1,0002.8,0108.89,0080.35,0076.10
2023-05-20 10:36:00,,0837.2,5.00,0.00,28.3,26.7,00.0,36.7,29.9,26.6,0002.8,0110.74,0081.33,0077.02
2023-05-20 10:37:00,,0837.2,5.01,0.00,28.3,26.7,00.0,36.7,29.9,26.6,0002.7,0113.31,0082.85,0078.38
2023-05-20 10:38:00,,0837.2,5.01,0.00,28.4,26.7,00.0,36.7,29.9,26.7,0002.7,0115.33,0084.13,0079.63
2023-05-20 10:39:00,,0837.2,4.99,0.00,28.3,26.7,00.0,36.7,29.9,26.7,0002.7,0116.27,0084.85,0080.33
2023-05-20 10:40:00,,0837.2,4.99,0.00,28.3,26.7,00.0,36.7,29.9,26.7,0002.8,0117.05,0085.56,0081.06
2023-05-20 10:41:00,,0837.2,5.01,0.00,28.3,26.7,00.0,36.7,29.9,26.7,0002.8,0118.00,0086.31,0081.76
2023-05-20 10:42:00,,0837.2,5.01,0.00,28.3,26.7,00.0,36.7,29.9,26.8,0002.8,0118.64,0086.86,0082.34
2023-05-20 10:43:00,,0837.2,5.01,0.00,28.3,26.7,00.0,36.7,29.9,26.8,0002.9,0119.45,0087.44,0082.89
2023-05-20 10:44:00,,0837.2,5.00,0.00,28.3,26.7,00.0,36.7,29.9,26.8,0002.8,0120.65,0088.21,0083.61
2023-05-20 10:45:00,,0837.2,4.99,0.00,28.3,26.7,00.0,36.7,29.9,26.8,0002.8,0122.55,0089.29,0084.55
2023-05-20 10:46:00,,0837.1,4.99,0.00,28.3,26.7,00.0,36.7,29.9,26.9,0002.7,0124.07,0090.02,0085.25
2023-05-20 10:47:00,,0837.1,5.00,0.00,28.3,26.7,00.0,36.7,29.9,26.9,0002.8,0123.87,0090.03,0085.23
2023-05-20 10:48:00,,0837.1,5.00,0.00,28.3,26.7,00.0,36.7,29.9,26.9,0002.8,0123.69,0090.07,0085.28
2023-05-20 10:49:00,,0837.1,5.00,0.00,28.3,26.7,00.0,36.7,29.9,27.0,0002.8,0123.81,0089.97,0085.22
2023-05-20 10:50:00,,0837.1,5.01,0.00,28.3,26.7,00.0,36.7,29.9,26.8,0002.8,0124.30,0090.06,0085.35
2023-05-20 10:51:00,,0837.1,5.00,0.00,28.3,26.7,00.0,36.7,29.9,26.8,0002.8,0125.13,0090.20,0085.48
2023-05-20 10:52:00,,0837.1,5.00,0.00,28.3,26.6,00.0,36.7,29.9,26.6,0002.8,0125.46,0090.32,0085.58
2023-05-20 10:53:00,,0837.1,5.01,0.00,28.3,26.6,00.0,36.7,29.9,26.5,0002.8,0125.37,0090.45,0085.74
2023-05-20 10:54:00,,0837.1,5.00,0.00,28.3,26.6,00.0,36.7,29.9,26.5,0002.8,0124.88,0090.37,0085.71
2023-05-20 10:55:00,,0837.0,5.00,0.00,28.3,26.6,00.0,36.7,29.9,26.5,0002.9,0124.70,0090.28,0085.67
2023-05-20 10:56:00,,0837.0,5.01,0.00,28.3,26.6,00.0,36.6,29.9,26.5,0002.9,0124.18,0090.15,0085.62
2023-05-20 10:57:00,,0837.0,5.00,0.00,28.2,26.5,00.0,36.6,29.9,26.4,0002.9,0123.64,0090.00,0085.47
2023-05-20 10:58:00,,0836.9,5.00,0.00,28.2,26.5,00.0,36.6,29.8,26.5,0002.9,0123.41,0089.77,0085.23
2023-05-20 10:59:00,,0836.9,4.99,0.00,28.2,26.5,00.0,36.6,29.8,26.9,0002.9,0122.91,0089.49,0085.00
